User: anonymous   Login
Location: Mentone
(34.5413°N, 85.5351°W)
Time: 04:28:16
(UTC-05:00)
Language:

Okean O Rocket - Orbit

View from above orbital plane
View from above orbital plane
View from above satellite
View from above satellite

Ground track
Ground track

The orbit data is extracted from the following two-line orbital elements,

1 25861U 99039B   15185.88923376  .00000173  00000-0  31119-4 0  9998
2 25861 098.0022 146.0120 0014786 216.7034 158.4608 14.78155596860397
Epoch (UTC): 04 July 2015 21:20:29
Eccentricity: 0.0014786
inclination: 98.0022°
perigee height: 625 km
apogee height: 645 km
right ascension of ascending node: 146.0120°
argument of perigee: 216.7034°
revolutions per day: 14.78155596
mean anomaly at epoch: 158.4608°
orbit number at epoch: 86039

The dashed part of the orbit path shows where the satellite is in the earth's shadow,  

DLR